When you browse on this site, cookies collect data to enhance your experience and personalize the content and advertising you see.
Visit our Privacy Policy to learn more. By continuing to use the site, you agree to this use of cookies and data.
  • En España
  • Lista de países
  • Para 7 días
  • Temperatura del agua
  • El tiempo en el mapa
  • Informadores
  • user-avatar
    Iniciar sesión

    Tiempo cada hora Stekolnaya Slobodka

    Hoy, 17 Febrero, Lunes

    Tiempo Temperatura Precipitaciones Viento Presión Humedad
    00:00 -2°C° 0 mm 8 mps 752 mmHg 90%
    01:00 -3°C° 0 mm 9 mps 751 mmHg 88%
    02:00 -2°C° 0 mm 8 mps 751 mmHg 86%
    03:00 -2°C° 0 mm 8 mps 750 mmHg 85%
    04:00 -3°C° 0 mm 9 mps 750 mmHg 83%
    05:00 -4°C° 0 mm 9 mps 749 mmHg 82%
    06:00 -3°C° 0 mm 9 mps 749 mmHg 81%
    07:00 -3°C° 0 mm 10 mps 748 mmHg 81%
    08:00 -3°C° 0 mm 10 mps 748 mmHg 82%
    09:00 -3°C° 0 mm 10 mps 748 mmHg 81%
    10:00 -3°C° 0 mm 10 mps 747 mmHg 79%
    11:00 -2°C° 0 mm 10 mps 747 mmHg 78%
    12:00 -2°C° 0 mm 10 mps 747 mmHg 78%
    13:00 -2°C° 0 mm 10 mps 746 mmHg 79%
    14:00 -2°C° 0 mm 10 mps 746 mmHg 79%
    15:00 -2°C° 0 mm 10 mps 746 mmHg 79%
    16:00 -1°C° 0 mm 9 mps 746 mmHg 78%
    17:00 -1°C° 0 mm 9 mps 746 mmHg 77%
    18:00 -1°C° 0 mm 9 mps 746 mmHg 78%
    19:00 -1°C° 0 mm 8 mps 747 mmHg 79%
    20:00 -1°C° 0 mm 8 mps 747 mmHg 80%
    21:00 -1°C° 0.1 mm 7 mps 747 mmHg 81%
    22:00 -1°C° 0.1 mm 7 mps 747 mmHg 83%
    23:00 -1°C° 0.1 mm 7 mps 747 mmHg 85%

    Mañana, 18 Febrero, Martes

    Tiempo Temperatura Precipitaciones Viento Presión Humedad
    00:00 -1°C° 0.8 mm 6 mps 747 mmHg 89%
    01:00 -2°C° 0.8 mm 6 mps 747 mmHg 93%
    02:00 -1°C° 0.8 mm 5 mps 747 mmHg 97%
    03:00 -1°C° 1.5 mm 5 mps 747 mmHg 97%
    04:00 -1°C° 1.5 mm 5 mps 746 mmHg 97%
    05:00 -1°C° 1.5 mm 5 mps 746 mmHg 97%
    06:00 -1°C° 1.4 mm 5 mps 746 mmHg 98%
    07:00 -1°C° 1.4 mm 4 mps 746 mmHg 98%
    08:00 -1°C° 1.4 mm 4 mps 746 mmHg 99%
    09:00 -1°C° 0.4 mm 4 mps 746 mmHg 99%
    10:00 -1°C° 0.4 mm 4 mps 745 mmHg 99%
    11:00 -1°C° 0.4 mm 5 mps 745 mmHg 99%
    12:00 -1°C° 0.8 mm 5 mps 745 mmHg 99%
    13:00 -1°C° 0.8 mm 5 mps 744 mmHg 99%
    14:00 -1°C° 0.8 mm 5 mps 744 mmHg 98%
    15:00 -1°C° 0.8 mm 4 mps 743 mmHg 98%
    16:00 -1°C° 0.8 mm 4 mps 743 mmHg 98%
    17:00 -1°C° 0.8 mm 4 mps 742 mmHg 98%
    18:00 -1°C° 0.5 mm 4 mps 742 mmHg 98%
    19:00 -1°C° 0.5 mm 4 mps 742 mmHg 99%
    20:00 0°C° 0.5 mm 3 mps 743 mmHg 99%
    21:00 -1°C° 0.3 mm 4 mps 742 mmHg 99%
    22:00 -1°C° 0.3 mm 4 mps 742 mmHg 99%
    23:00 0°C° 0.3 mm 4 mps 742 mmHg 99%

    Pasado mañana, 19 Febrero, Miércoles

    Tiempo Temperatura Precipitaciones Viento Presión Humedad
    00:00 -1°C° 0 mm 4 mps 742 mmHg 98%
    01:00 -1°C° 0 mm 4 mps 742 mmHg 97%
    02:00 -1°C° 0 mm 4 mps 743 mmHg 96%
    03:00 -1°C° 0 mm 4 mps 743 mmHg 96%
    04:00 -1°C° 0 mm 4 mps 743 mmHg 96%
    05:00 -1°C° 0 mm 4 mps 743 mmHg 96%
    06:00 -1°C° 0 mm 4 mps 743 mmHg 96%
    07:00 -1°C° 0 mm 4 mps 743 mmHg 96%
    08:00 -1°C° 0 mm 4 mps 744 mmHg 96%
    09:00 -1°C° 0 mm 4 mps 744 mmHg 97%
    10:00 -1°C° 0 mm 4 mps 744 mmHg 98%
    11:00 -1°C° 0 mm 4 mps 744 mmHg 99%
    12:00 -1°C° 0 mm 4 mps 744 mmHg 98%
    13:00 -1°C° 0 mm 4 mps 744 mmHg 97%
    14:00 0°C° 0 mm 4 mps 745 mmHg 96%
    15:00 -1°C° 0 mm 4 mps 745 mmHg 93%
    16:00 -1°C° 0 mm 4 mps 745 mmHg 91%
    17:00 -1°C° 0 mm 4 mps 745 mmHg 88%
    18:00 -1°C° 0 mm 4 mps 745 mmHg 89%
    19:00 -2°C° 0 mm 4 mps 746 mmHg 89%
    20:00 -1°C° 0 mm 3 mps 746 mmHg 90%
    21:00 -1°C° 0 mm 3 mps 746 mmHg 90%
    22:00 -2°C° 0 mm 3 mps 746 mmHg 89%
    23:00 -2°C° 0 mm 3 mps 746 mmHg 89%

    20 Febrero, Jueves

    Tiempo Temperatura Precipitaciones Viento Presión Humedad
    00:00 -2°C° 0 mm 3 mps 746 mmHg 89%
    01:00 -3°C° 0 mm 2 mps 747 mmHg 89%
    02:00 -3°C° 0 mm 2 mps 747 mmHg 89%
    03:00 -3°C° 0 mm 2 mps 747 mmHg 89%
    04:00 -3°C° 0 mm 2 mps 747 mmHg 90%
    05:00 -3°C° 0 mm 2 mps 747 mmHg 90%
    06:00 -3°C° 0 mm 2 mps 747 mmHg 90%
    07:00 -2°C° 0 mm 3 mps 747 mmHg 90%
    08:00 -2°C° 0 mm 3 mps 748 mmHg 90%
    09:00 -1°C° 0 mm 3 mps 748 mmHg 91%
    10:00 -1°C° 0 mm 3 mps 748 mmHg 92%
    11:00 0°C° 0 mm 3 mps 748 mmHg 94%
    12:00 0°C° 0 mm 3 mps 748 mmHg 94%
    13:00 0°C° 0 mm 3 mps 748 mmHg 95%
    14:00 +1°C° 0 mm 2 mps 748 mmHg 96%
    15:00 -1°C° 0 mm 2 mps 748 mmHg 96%
    16:00 -1°C° 0 mm 2 mps 748 mmHg 95%
    17:00 -2°C° 0 mm 2 mps 748 mmHg 95%
    18:00 -2°C° 0 mm 2 mps 748 mmHg 95%
    19:00 -2°C° 0 mm 2 mps 749 mmHg 95%
    20:00 -2°C° 0 mm 3 mps 749 mmHg 95%
    21:00 -2°C° 0 mm 3 mps 749 mmHg 95%
    22:00 -4°C° 0 mm 3 mps 749 mmHg 95%
    23:00 -4°C° 0 mm 3 mps 750 mmHg 95%

    21 Febrero, Viernes

    Tiempo Temperatura Precipitaciones Viento Presión Humedad
    00:00 -4°C° 0 mm 3 mps 750 mmHg 95%
    01:00 -3°C° 0 mm 2 mps 750 mmHg 96%
    02:00 -2°C° 0 mm 2 mps 750 mmHg 96%
    03:00 -2°C° 0 mm 2 mps 750 mmHg 97%
    04:00 -2°C° 0 mm 2 mps 750 mmHg 97%
    05:00 -1°C° 0 mm 2 mps 750 mmHg 97%
    06:00 -1°C° 0 mm 2 mps 750 mmHg 97%
    07:00 -1°C° 0 mm 2 mps 750 mmHg 97%
    08:00 -1°C° 0 mm 2 mps 751 mmHg 98%
    15:00 +1°C° 0 mm 2 mps 750 mmHg 98%
    16:00 -1°C° 0 mm 2 mps 750 mmHg 98%
    17:00 -1°C° 0 mm 2 mps 750 mmHg 97%
    18:00 -1°C° 0 mm 2 mps 750 mmHg 96%
    19:00 -2°C° 0 mm 2 mps 751 mmHg 95%
    20:00 -2°C° 0 mm 2 mps 751 mmHg 94%
    21:00 -2°C° 0 mm 2 mps 751 mmHg 94%
    22:00 -3°C° 0 mm 2 mps 751 mmHg 94%
    23:00 -3°C° 0 mm 2 mps 751 mmHg 93%

    22 Febrero, Sábado

    Tiempo Temperatura Precipitaciones Viento Presión Humedad
    00:00 -3°C° 0 mm 2 mps 751 mmHg 94%
    01:00 -4°C° 0 mm 2 mps 751 mmHg 94%
    02:00 -4°C° 0 mm 2 mps 751 mmHg 94%
    03:00 -4°C° 0 mm 2 mps 751 mmHg 94%
    04:00 -4°C° 0 mm 2 mps 751 mmHg 94%
    05:00 -4°C° 0 mm 2 mps 751 mmHg 94%
    06:00 -4°C° 0 mm 2 mps 751 mmHg 94%
    07:00 -5°C° 0 mm 3 mps 751 mmHg 93%
    08:00 -5°C° 0 mm 3 mps 751 mmHg 93%
    09:00 -4°C° 0 mm 3 mps 751 mmHg 92%
    10:00 -4°C° 0 mm 3 mps 750 mmHg 91%
    11:00 -2°C° 0 mm 3 mps 750 mmHg 91%
    12:00 -3°C° 0 mm 4 mps 750 mmHg 90%
    13:00 -2°C° 0 mm 4 mps 749 mmHg 89%
    14:00 -2°C° 0 mm 4 mps 749 mmHg 88%
    15:00 -2°C° 0 mm 4 mps 748 mmHg 89%
    16:00 -3°C° 0 mm 4 mps 748 mmHg 90%
    17:00 -3°C° 0 mm 4 mps 747 mmHg 90%
    18:00 -3°C° 0 mm 4 mps 746 mmHg 89%
    19:00 -4°C° 0 mm 5 mps 746 mmHg 88%
    20:00 -2°C° 0 mm 5 mps 745 mmHg 87%
    21:00 -4°C° 0 mm 6 mps 744 mmHg 88%
    22:00 -4°C° 0 mm 6 mps 743 mmHg 88%
    23:00 -4°C° 0 mm 7 mps 742 mmHg 88%
    Mostrar más